�������l�o���
Date,Time,MP-1(��Sv/h),MP-2(��Sv/h),MP-3(��Sv/h),MP-4(��Sv/h),MP-5(��Sv/h),MP-6(��Sv/h),MP-7(��Sv/h),MP-8(��Sv/h),����,����(m/s),���J
2018/11/14,00:00,0.773,1.171,0.816,1.452,1.053,0.454,0.800,0.756,�k�k��,8.3,��
2018/11/14,00:10,0.773,1.170,0.816,1.452,1.052,0.456,0.799,0.757,�k�k��,7.5,��
2018/11/14,00:20,0.772,1.168,0.817,1.450,1.052,0.455,0.801,0.755,�k�k��,8.6,��
2018/11/14,00:30,0.772,1.169,0.816,1.451,1.054,0.456,0.798,0.757,�k�k��,7.4,��
2018/11/14,00:40,0.772,1.169,0.817,1.452,1.051,0.454,0.800,0.756,�k�k��,8.1,��
2018/11/14,00:50,0.773,1.172,0.816,1.453,1.053,0.454,0.800,0.757,�k�k��,8.1,��
2018/11/14,01:00,0.774,1.169,0.816,1.452,1.052,0.455,0.800,0.756,�k�k��,7.0,��
2018/11/14,01:10,0.772,1.169,0.816,1.450,1.052,0.456,0.798,0.756,�k�k��,7.9,��
2018/11/14,01:20,0.772,1.169,0.816,1.452,1.055,0.454,0.799,0.757,�k�k��,7.6,��
2018/11/14,01:30,0.774,1.170,0.818,1.452,1.054,0.455,0.800,0.757,�k�k��,8.8,��
2018/11/14,01:40,0.771,1.170,0.815,1.451,1.054,0.454,0.798,0.756,�k�k��,7.8,��
2018/11/14,01:50,0.773,1.171,0.817,1.452,1.053,0.455,0.799,0.758,�k�k��,8.2,��
2018/11/14,02:00,0.774,1.173,0.817,1.452,1.053,0.454,0.799,0.757,�k�k��,7.6,��
2018/11/14,02:10,0.772,1.172,0.816,1.453,1.053,0.455,0.800,0.757,�k�k��,8.4,��
2018/11/14,02:20,0.771,1.173,0.816,1.453,1.057,0.456,0.799,0.758,�k�k��,8.4,��
2018/11/14,02:30,0.774,1.169,0.818,1.452,1.053,0.455,0.800,0.757,�k�k��,8.5,��
2018/11/14,02:40,0.770,1.170,0.817,1.455,1.055,0.456,0.799,0.757,�k�k��,7.6,��
2018/11/14,02:50,0.772,1.171,0.818,1.452,1.056,0.457,0.799,0.758,�k�k��,8.0,��
2018/11/14,03:00,0.771,1.173,0.816,1.453,1.054,0.455,0.799,0.758,�k�k��,7.2,��
2018/11/14,03:10,0.770,1.171,0.815,1.451,1.052,0.455,0.799,0.757,�k�k��,6.9,��
2018/11/14,03:20,0.773,1.172,0.816,1.453,1.053,0.455,0.800,0.758,�k�k��,6.1,��
2018/11/14,03:30,0.772,1.170,0.817,1.454,1.054,0.454,0.800,0.757,�k��,7.1,��
2018/11/14,03:40,0.772,1.170,0.820,1.452,1.053,0.455,0.799,0.759,�k��,8.1,��
2018/11/14,03:50,0.771,1.172,0.817,1.455,1.053,0.456,0.799,0.757,�k�k��,7.4,��
2018/11/14,04:00,0.772,1.170,0.817,1.455,1.055,0.454,0.799,0.757,�k��,7.2,��
2018/11/14,04:10,0.773,1.170,0.817,1.452,1.053,0.455,0.800,0.756,�k��,7.2,��
2018/11/14,04:20,0.773,1.172,0.816,1.452,1.053,0.455,0.799,0.757,�k��,8.5,��
2018/11/14,04:30,0.773,1.169,0.816,1.453,1.052,0.456,0.799,0.757,�k�k��,8.8,��
2018/11/14,04:40,0.773,1.170,0.817,1.456,1.052,0.457,0.799,0.757,�k�k��,8.6,��
2018/11/14,04:50,0.772,1.171,0.818,1.453,1.055,0.456,0.799,0.755,�k��,7.4,��
2018/11/14,05:00,0.773,1.171,0.819,1.453,1.053,0.454,0.798,0.756,�k��,7.2,��
2018/11/14,05:10,0.771,1.171,0.817,1.454,1.052,0.455,0.801,0.756,�k��,6.4,��
2018/11/14,05:20,0.772,1.173,0.818,1.454,1.053,0.455,0.801,0.757,�k�k��,6.9,��
2018/11/14,05:30,0.774,1.171,0.818,1.455,1.053,0.455,0.799,0.757,�k��,7.2,��
2018/11/14,05:40,0.772,1.170,0.817,1.454,1.053,0.457,0.799,0.757,�k��,7.7,��
2018/11/14,05:50,0.772,1.171,0.816,1.455,1.054,0.455,0.802,0.758,�k��,7.2,��
2018/11/14,06:00,0.771,1.172,0.818,1.458,1.054,0.455,0.801,0.757,�k��,7.1,��
2018/11/14,06:10,0.770,1.170,0.817,1.453,1.052,0.454,0.800,0.757,�k��,7.7,��
2018/11/14,06:20,0.772,1.174,0.817,1.452,1.052,0.455,0.801,0.757,�k��,7.8,��
2018/11/14,06:30,0.773,1.168,0.817,1.452,1.054,0.454,0.802,0.757,�k��,7.4,��
2018/11/14,06:40,0.772,1.171,0.819,1.454,1.054,0.454,0.800,0.757,�k��,7.4,��
2018/11/14,06:50,0.773,1.170,0.818,1.453,1.053,0.454,0.799,0.755,�k��,7.8,��
2018/11/14,07:00,0.772,1.170,0.819,1.452,1.052,0.454,0.801,0.756,�k��,8.0,��
2018/11/14,07:10,0.773,1.170,0.819,1.455,1.054,0.456,0.801,0.757,�k��,8.1,��
2018/11/14,07:20,0.773,1.171,0.817,1.452,1.055,0.454,0.801,0.756,�k��,7.9,��
2018/11/14,07:30,0.771,1.169,0.817,1.454,1.052,0.455,0.801,0.755,�k��,8.2,��
2018/11/14,07:40,0.773,1.172,0.817,1.455,1.054,0.455,0.801,0.759,�k��,7.9,��
2018/11/14,07:50,0.771,1.172,0.817,1.454,1.052,0.453,0.800,0.757,�k��,7.1,��
2018/11/14,08:00,0.771,1.171,0.816,1.454,1.054,0.452,0.802,0.757,�k��,7.2,��
2018/11/14,08:10,0.772,1.171,0.815,1.454,1.052,0.455,0.803,0.756,�k��,6.6,��
2018/11/14,08:20,0.772,1.169,0.818,1.456,1.052,0.456,0.802,0.756,�k��,5.7,��
2018/11/14,08:30,0.774,1.168,0.816,1.452,1.056,0.455,0.803,0.757,�k�k��,5.5,��
2018/11/14,08:40,0.774,1.169,0.816,1.454,1.055,0.456,0.800,0.758,�k�k��,7.3,��
2018/11/14,08:50,0.772,1.172,0.815,1.452,1.054,0.455,0.801,0.757,�k�k��,8.0,��
2018/11/14,09:00,0.774,1.168,0.816,1.457,1.053,0.455,0.800,0.758,�k�k��,8.8,��
2018/11/14,09:10,0.771,1.167,0.817,1.454,1.054,0.455,0.799,0.756,�k�k��,8.0,��
2018/11/14,09:20,0.775,1.171,0.817,1.456,1.055,0.456,0.801,0.758,�k�k��,7.8,��
2018/11/14,09:30,0.773,1.167,0.816,1.455,1.055,0.457,0.800,0.757,�k,7.3,��
2018/11/14,09:40,0.774,1.165,0.818,1.454,1.055,0.456,0.801,0.758,�k�k��,7.7,��
2018/11/14,09:50,0.773,1.166,0.817,1.457,1.054,0.457,0.800,0.756,�k�k��,9.2,��
2018/11/14,10:00,0.774,1.167,0.819,1.459,1.054,0.457,0.799,0.757,�k�k��,8.3,��
2018/11/14,10:10,0.774,1.167,0.819,1.454,1.056,0.457,0.802,0.758,�k�k��,8.8,��
2018/11/14,10:20,0.771,1.169,0.817,1.458,1.056,0.455,0.799,0.759,�k�k��,9.1,��
2018/11/14,10:30,0.771,1.166,0.818,1.458,1.056,0.455,0.801,0.757,�k,8.7,��
2018/11/14,10:40,0.775,1.166,0.819,1.458,1.054,0.454,0.800,0.759,�k�k��,6.9,��
2018/11/14,10:50,0.774,1.169,0.817,1.456,1.054,0.453,0.801,0.758,�k,5.9,��
2018/11/14,11:00,0.774,1.170,0.818,1.457,1.057,0.454,0.802,0.758,�k�k��,6.8,��
2018/11/14,11:10,0.774,1.171,0.816,1.456,1.056,0.454,0.802,0.758,�k,6.5,��
2018/11/14,11:20,0.775,1.171,0.819,1.460,1.055,0.453,0.801,0.758,�k,7.8,��
2018/11/14,11:30,0.775,1.173,0.819,1.460,1.056,0.452,0.802,0.759,�k,9.1,��
2018/11/14,11:40,0.774,1.171,0.819,1.457,1.054,0.454,0.802,0.761,�k�k��,8.8,��
2018/11/14,11:50,0.774,1.171,0.819,1.459,1.058,0.453,0.801,0.759,�k,9.0,��
2018/11/14,12:00,0.775,1.170,0.820,1.456,1.057,0.455,0.801,0.759,�k,9.1,��
2018/11/14,12:10,0.776,1.175,0.819,1.459,1.057,0.453,0.802,0.759,�k,8.3,��
2018/11/14,12:20,0.775,1.174,0.820,1.459,1.055,0.455,0.798,0.758,�k�k��,8.9,��
2018/11/14,12:30,0.775,1.174,0.818,1.459,1.055,0.456,0.799,0.758,�k�k��,8.1,��
2018/11/14,12:40,0.775,1.172,0.820,1.459,1.056,0.454,0.799,0.756,�k�k��,8.7,��
2018/11/14,12:50,0.776,1.172,0.820,1.460,1.057,0.458,0.802,0.755,�k,8.4,��
2018/11/14,13:00,0.775,1.168,0.819,1.460,1.058,0.458,0.800,0.756,�k�k��,8.4,��
2018/11/14,13:10,0.776,1.168,0.818,1.458,1.056,0.455,0.800,0.755,�k�k��,7.5,��
2018/11/14,13:20,0.775,1.173,0.819,1.461,1.057,0.455,0.801,0.755,�k�k��,8.9,��
2018/11/14,13:30,0.778,1.174,0.819,1.461,1.059,0.456,0.801,0.756,�k�k��,8.6,��
2018/11/14,13:40,0.776,1.172,0.819,1.458,1.057,0.454,0.801,0.756,�k,7.4,��
2018/11/14,13:50,0.775,1.173,0.817,1.458,1.060,0.455,0.800,0.756,�k�k��,8.0,��
2018/11/14,14:00,0.777,1.169,0.820,1.460,1.059,0.457,0.801,0.757,�k,7.9,��
2018/11/14,14:10,0.776,1.172,0.820,1.458,1.059,0.457,0.798,0.756,�k,8.2,��
2018/11/14,14:20,0.778,1.169,0.820,1.457,1.057,0.457,0.802,0.759,�k,7.5,��
2018/11/14,14:30,0.777,1.171,0.820,1.461,1.060,0.455,0.803,0.759,�k�k��,6.6,��
2018/11/14,14:40,0.776,1.170,0.820,1.461,1.059,0.456,0.802,0.757,�k,7.3,��
2018/11/14,14:50,0.777,1.174,0.817,1.462,1.059,0.457,0.802,0.757,�k,7.5,��
2018/11/14,15:00,0.776,1.173,0.819,1.459,1.060,0.455,0.802,0.758,�k�k��,7.1,��
2018/11/14,15:10,0.777,1.176,0.820,1.460,1.058,0.456,0.801,0.756,�k,7.2,��
2018/11/14,15:20,0.776,1.176,0.820,1.462,1.057,0.455,0.804,0.760,�k,6.6,��
2018/11/14,15:30,0.778,1.176,0.820,1.460,1.059,0.455,0.801,0.760,�k,6.0,��
2018/11/14,15:40,0.777,1.178,0.822,1.460,1.059,0.455,0.801,0.760,�k,4.7,��
2018/11/14,15:50,0.776,1.178,0.821,1.462,1.057,0.456,0.802,0.759,�k,4.7,��
2018/11/14,16:00,0.778,1.180,0.821,1.460,1.059,0.457,0.811,0.760,�k,4.7,��
2018/11/14,16:10,0.775,1.179,0.822,1.460,1.058,0.456,0.803,0.761,�k�k��,4.6,��
2018/11/14,16:20,0.776,1.181,0.819,1.463,1.057,0.457,0.801,0.759,�k�k��,4.3,��
2018/11/14,16:30,0.776,1.178,0.820,1.460,1.058,0.456,0.803,0.758,�k�k��,3.9,��
2018/11/14,16:40,0.779,1.179,0.820,1.460,1.058,0.455,0.803,0.759,�k�k��,3.9,��
2018/11/14,16:50,0.777,1.181,0.819,1.459,1.062,0.456,0.801,0.757,�k�k��,4.2,��
2018/11/14,17:00,0.777,1.179,0.820,1.463,1.061,0.454,0.801,0.759,�k��,4.3,��
2018/11/14,17:10,0.775,1.178,0.820,1.460,1.060,0.454,0.803,0.759,�k��,4.3,��
2018/11/14,17:20,0.776,1.181,0.821,1.461,1.060,0.455,0.801,0.759,�k��,4.8,��
2018/11/14,17:30,0.779,1.177,0.823,1.461,1.061,0.456,0.802,0.758,�k��,5.2,��
2018/11/14,17:40,0.777,1.176,0.821,1.463,1.060,0.455,0.801,0.757,�k��,5.3,��
2018/11/14,17:50,0.777,1.179,0.822,1.460,1.060,0.454,0.802,0.759,�k��,5.6,��
2018/11/14,18:00,0.774,1.180,0.823,1.460,1.061,0.456,0.802,0.758,�k��,5.6,��
2018/11/14,18:10,0.777,1.181,0.820,1.461,1.060,0.454,0.802,0.757,�k��,6.0,��
2018/11/14,18:20,0.779,1.180,0.821,1.460,1.061,0.456,0.802,0.757,�k��,5.8,��
2018/11/14,18:30,0.775,1.181,0.822,1.457,1.061,0.455,0.801,0.758,���k��,6.2,��
2018/11/14,18:40,0.777,1.178,0.822,1.458,1.061,0.454,0.803,0.760,���k��,6.2,��
2018/11/14,18:50,0.775,1.179,0.821,1.462,1.059,0.454,0.804,0.756,���k��,6.2,��
2018/11/14,19:00,0.777,1.178,0.821,1.458,1.061,0.456,0.802,0.759,�k��,6.4,��
2018/11/14,19:10,0.779,1.176,0.820,1.459,1.060,0.454,0.801,0.758,�k��,6.5,��
2018/11/14,19:20,0.777,1.179,0.821,1.461,1.062,0.454,0.802,0.757,�k��,6.2,��
2018/11/14,19:30,0.778,1.177,0.821,1.458,1.060,0.455,0.803,0.759,���k��,6.2,��
2018/11/14,19:40,0.775,1.178,0.820,1.460,1.060,0.455,0.804,0.758,�k��,6.6,��
2018/11/14,19:50,0.777,1.179,0.824,1.462,1.060,0.454,0.802,0.759,�k��,6.7,��
2018/11/14,20:00,0.777,1.179,0.822,1.462,1.061,0.455,0.802,0.758,���k��,6.8,��
2018/11/14,20:10,0.777,1.179,0.821,1.460,1.064,0.455,0.802,0.759,���k��,7.2,��
2018/11/14,20:20,0.776,1.177,0.821,1.460,1.059,0.456,0.802,0.756,�k��,7.3,��
2018/11/14,20:30,0.777,1.178,0.822,1.459,1.060,0.456,0.803,0.758,�k��,7.0,��
2018/11/14,20:40,0.778,1.179,0.821,1.460,1.061,0.455,0.803,0.758,�k��,7.4,��
2018/11/14,20:50,0.775,1.181,0.821,1.462,1.059,0.455,0.801,0.758,�k��,7.2,��
2018/11/14,21:00,0.777,1.177,0.820,1.461,1.062,0.455,0.802,0.759,�k��,7.4,��
2018/11/14,21:10,0.776,1.178,0.821,1.460,1.060,0.455,0.803,0.758,�k��,7.3,��
2018/11/14,21:20,0.775,1.180,0.821,1.461,1.059,0.454,0.802,0.757,�k��,7.0,��
2018/11/14,21:30,0.777,1.178,0.823,1.460,1.059,0.456,0.803,0.758,�k��,7.2,��
2018/11/14,21:40,0.778,1.177,0.822,1.461,1.061,0.455,0.801,0.759,�k��,7.2,��
2018/11/14,21:50,0.778,1.179,0.821,1.461,1.060,0.456,0.802,0.760,�k��,6.4,��
2018/11/14,22:00,0.776,1.179,0.819,1.460,1.058,0.454,0.799,0.759,�k��,6.9,��
2018/11/14,22:10,0.775,1.178,0.821,1.460,1.059,0.455,0.802,0.757,�k��,6.8,��
2018/11/14,22:20,0.776,1.180,0.821,1.460,1.061,0.454,0.802,0.758,�k��,6.8,��
2018/11/14,22:30,0.775,1.179,0.820,1.460,1.060,0.454,0.802,0.757,�k��,6.6,��
2018/11/14,22:40,0.777,1.178,0.821,1.463,1.060,0.453,0.801,0.757,���k��,6.1,��
2018/11/14,22:50,0.775,1.176,0.822,1.460,1.056,0.456,0.801,0.757,���k��,6.4,��
2018/11/14,23:00,0.776,1.180,0.821,1.459,1.061,0.453,0.801,0.757,�k��,6.3,��
2018/11/14,23:10,0.775,1.180,0.821,1.460,1.061,0.454,0.801,0.757,�k��,6.9,��
2018/11/14,23:20,0.776,1.177,0.822,1.459,1.060,0.454,0.803,0.756,�k��,6.2,��
2018/11/14,23:30,0.777,1.177,0.820,1.461,1.058,0.454,0.802,0.756,�k��,7.1,��
2018/11/14,23:40,0.774,1.176,0.822,1.459,1.057,0.455,0.802,0.757,�k��,7.2,��
2018/11/14,23:50,0.775,1.177,0.820,1.463,1.060,0.455,0.803,0.756,�k��,7.3,��
